Battle Creek, MI

10:46 PM EST on December 12, 2017 (GMT -0500)
Kellogg

Weather History for KBTL - May, 2013

Change the Weather History Date:

Tuesday, May 28, 2013

  Actual Average Record
Temperature  
Mean Temperature 66 °F 62 °F  
Max Temperature 78 °F 74 °F 92 °F (2012)
Min Temperature 54 °F 50 °F 36 °F (2008)
Degree Days  
Heating Degree Days 0 5  
Month to date heating degree days 152 232  
Since 1 July heating degree days 6379 6621  
Cooling Degree Days 1 2  
Month to date cooling degree days 52 26  
Year to date cooling degree days 52 33  
Growing Degree Days 15 (Base 50)    
Moisture  
Dew Point 59 °F    
Average Humidity 82    
Maximum Humidity 100    
Minimum Humidity 64    
Precipitation  
Precipitation 0.51 in 0.12 in 1.59 in (2000)
Month to date precipitation 1.60 3.39  
Year to date precipitation 12.74 11.10  
Sea Level Pressure  
Sea Level Pressure 29.88 in    
Wind  
Wind Speed 11 mph (South)    
Max Wind Speed 23 mph    
Max Gust Speed 32 mph    
Visibility 6 miles    
Events Fog , Rain , Thunderstorm    
T = Trace of Precipitation, MM = Missing Value Source: NWS Daily Summary

Daily Weather History Graph

Daily Weather History Graph

Search for Another Location

Airport or City:

Trip Planner

Search our weather history database for the weather conditions in past years. The results will help you decide how hot, cold, wet, or windy it might be!

Date:

Astronomy

May. 28, 2013 Rise Set
Actual Time 6:08 AM EDT 9:08 PM EDT
Civil Twilight 5:35 AM EDT 9:41 PM EDT
Nautical Twilight 4:52 AM EDT 10:24 PM EDT
Astronomical Twilight 4:02 AM EDT 11:14 PM EDT
Moon No Moon Rise 9:58 AM EDT (5/28)
Length of Visible Light 16h 06m
Length of Day
14h 59m
Waning Gibbous, 83% of the Moon is Illuminated
May 28
Waning Gibbous
May 31
Last Quarter
Jun 8
New
Jun 16
First Quarter
Jun 23
Full

Hourly Weather History & Observations

Time (EDT) Temp. Dew Point Humidity Pressure Visibility Wind Dir Wind Speed Gust Speed Precip Events Conditions
12:12 AM 53.6 °F 51.8 °F 94% 29.96 in 8.0 mi ESE 5.8 mph - N/A   Overcast
12:51 AM 53.6 °F 51.8 °F 94% 29.95 in 8.0 mi ESE 6.9 mph - N/A   Overcast
12:53 AM 54.0 °F 52.0 °F 93% 29.95 in 8.0 mi ESE 6.9 mph - N/A   Overcast
1:30 AM 53.6 °F 51.8 °F 94% 29.94 in 7.0 mi ESE 5.8 mph - N/A   Overcast
1:53 AM 55.0 °F 52.0 °F 89% 29.94 in 7.0 mi East 4.6 mph - N/A   Overcast
2:53 AM 55.0 °F 53.1 °F 93% 29.93 in 6.0 mi SE 4.6 mph - N/A   Overcast
3:34 AM 55.4 °F 53.6 °F 94% 29.92 in 3.0 mi ESE 4.6 mph - N/A   Overcast
3:46 AM 55.4 °F 53.6 °F 94% 29.91 in 2.0 mi ESE 4.6 mph - N/A   Overcast
3:53 AM 55.0 °F 54.0 °F 96% 29.91 in 1.8 mi SE 4.6 mph - N/A   Overcast
4:26 AM 55.4 °F 53.6 °F 94% 29.91 in 0.8 mi Calm Calm - N/A   Overcast
4:53 AM 55.9 °F 55.0 °F 97% 29.92 in 0.5 mi SSE 5.8 mph - N/A Fog Fog
5:19 AM 55.4 °F 55.4 °F 100% 29.91 in 1.0 mi Calm Calm - 0.00 in Rain Light Rain
5:43 AM 57.2 °F 55.4 °F 94% 29.91 in 3.0 mi SSE 3.5 mph - 0.02 in Rain Light Rain
5:53 AM 57.0 °F 55.9 °F 96% 29.90 in 3.0 mi Calm Calm - 0.03 in Rain Light Rain
6:00 AM 57.2 °F 55.4 °F 94% 29.90 in 3.0 mi Calm Calm - 0.01 in Rain Rain
6:09 AM 57.2 °F 55.4 °F 94% 29.91 in 3.0 mi Calm Calm - 0.01 in Rain Light Rain
6:17 AM 57.2 °F 55.4 °F 94% 29.91 in 1.8 mi Calm Calm - 0.06 in Rain Heavy Rain
6:38 AM 57.2 °F 55.4 °F 94% 29.93 in 2.0 mi Calm Calm - 0.11 in Rain Rain
6:53 AM 57.0 °F 55.9 °F 96% 29.92 in 2.5 mi NE 4.6 mph - 0.17 in Rain Rain
7:11 AM 57.2 °F 55.4 °F 94% 29.92 in 1.8 mi NE 6.9 mph - 0.01 in   Overcast
7:29 AM 57.2 °F 57.2 °F 100% 29.91 in 2.0 mi ESE 4.6 mph - 0.01 in   Overcast
7:53 AM 59.0 °F 57.0 °F 93% 29.90 in 2.0 mi SSE 6.9 mph - 0.01 in   Overcast
8:20 AM 60.8 °F 57.2 °F 88% 29.89 in 3.0 mi SSE 8.1 mph - N/A   Overcast
8:33 AM 60.8 °F 57.2 °F 88% 29.89 in 4.0 mi SSE 9.2 mph - N/A   Overcast
8:50 AM 60.8 °F 59.0 °F 94% 29.89 in 4.0 mi SSE 10.4 mph - N/A   Overcast
8:53 AM 61.0 °F 59.0 °F 93% 29.90 in 5.0 mi SSE 10.4 mph - N/A   Overcast
9:53 AM 64.9 °F 61.0 °F 87% 29.88 in 10.0 mi South 9.2 mph - N/A   Overcast
10:53 AM 69.1 °F 63.0 °F 81% 29.86 in 10.0 mi South 11.5 mph - N/A   Partly Cloudy
11:53 AM 73.0 °F 64.0 °F 73% 29.84 in 10.0 mi SW 20.7 mph 25.3 mph N/A   Mostly Cloudy
12:19 PM 73.4 °F 64.4 °F 73% 29.85 in 10.0 mi SSW 19.6 mph 28.8 mph N/A   Mostly Cloudy
12:53 PM 71.1 °F 64.0 °F 78% 29.84 in 9.0 mi SW 16.1 mph 25.3 mph 0.00 in Rain Light Rain
1:16 PM 71.6 °F 64.4 °F 78% 29.85 in 10.0 mi SSW 15.0 mph 21.9 mph 0.01 in   Overcast
1:53 PM 73.9 °F 64.9 °F 73% 29.85 in 10.0 mi SW 15.0 mph 23.0 mph 0.01 in   Partly Cloudy
2:53 PM 75.9 °F 64.9 °F 69% 29.85 in 10.0 mi SW 18.4 mph 29.9 mph N/A   Mostly Cloudy
3:53 PM 75.0 °F 64.9 °F 71% 29.84 in 10.0 mi SW 15.0 mph 19.6 mph N/A   Overcast
4:53 PM 75.0 °F 66.0 °F 73% 29.83 in 10.0 mi SSW 17.3 mph 24.2 mph 0.00 in   Overcast
5:53 PM 77.0 °F 66.9 °F 71% 29.82 in 10.0 mi SW 16.1 mph - 0.00 in   Scattered Clouds
6:53 PM 77.0 °F 66.9 °F 71% 29.81 in 10.0 mi SSW 16.1 mph 24.2 mph N/A   Mostly Cloudy
7:53 PM 77.0 °F 64.9 °F 66% 29.81 in 10.0 mi SW 16.1 mph 23.0 mph N/A   Overcast
8:53 PM 75.9 °F 64.0 °F 67% 29.80 in 10.0 mi SW 13.8 mph - N/A   Overcast
9:53 PM 73.0 °F 66.0 °F 79% 29.80 in 8.0 mi SSW 10.4 mph - 0.00 in Rain Light Rain
10:03 PM 71.6 °F 66.2 °F 83% 29.82 in 9.0 mi SW 8.1 mph - 0.01 in Rain Light Rain
10:53 PM 72.0 °F 66.9 °F 84% 29.80 in 10.0 mi SSW 9.2 mph - 0.01 in   Overcast
11:04 PM 71.6 °F 66.2 °F 83% 29.82 in 9.0 mi SSW 13.8 mph - 0.00 in Rain , Thunderstorm Light Rain
11:53 PM 71.1 °F 66.9 °F 87% 29.81 in 10.0 mi SSE 6.9 mph - 0.08 in Thunderstorm Thunderstorm